Flag for Venezuela Weather past 2 weeks in Barquisimeto, Venezuela

Now
82 °F

Partly sunny.


Feels Like: 84 °F
Forecast: 69 / 89 °F
Wind: 3 mph from Southeast

Location: Barquisimeto Airport

Current Time: Dec 18, 2014 at 10:04:37 AM

Latest Report: Dec 18, 2014 at 9:30 AM


Visibility: N/A

Pressure: 30.09 "Hg

Humidity: 55%

Dew point: 64 °F

Location of BarquisimetoLocation

Historic Weather in Barquisimeto — Graph

°F

Barquisimeto temperature yesterday

Maximum temperature yesterday: 88 °F (at 3:30 PM)
Minimum temperature yesterday: 72 °F (at 4:30 AM)
Average temperature yesterday: 79 °F

Past Weeks' High & Low Weather Summary

 TemperatureHumidityPressure
High90 °F (Dec 5, 2:30 PM)94% (Dec 4, 4:30 AM)30.09 "Hg (Dec 4, 4:30 AM)
Low68 °F (Dec 5, 1:30 PM)16% (Dec 9, 12:30 PM)29.68 "Hg (Dec 15, 7:30 AM)
Average78 °F71%29.98 "Hg
* Reported Dec 3 8:30 AM — Dec 18 8:30 AM, Barquisimeto, Weather by CustomWeather, © 2014

Note: Actual official high and low records may vary slightly from our data, if they occured in-between our weather recording intervals... More about our weather records

Advertising

Barquisimeto weather history for previous 24 hours

 ConditionsComfort  
Time TempWeatherWind HumidityBarometerVisibility
8:30 AM
Dec 18
75 °FPartly sunny.2 mph74%30.07 "HgN/A
7:30 AM72 °FPartly sunny.12 mph88%30.07 "HgN/A
6:30 AM72 °FPartly sunny.No wind83%30.07 "HgN/A
5:30 AM72 °FPassing clouds.5 mph88%30.04 "HgN/A
4:30 AM72 °FPassing clouds.3 mph88%30.04 "HgN/A
1:30 AM73 °FPassing clouds.9 mph83%30.07 "HgN/A
10:30 PM
Dec 17
73 °FPassing clouds.7 mph83%30.07 "HgN/A
9:30 PM75 °FPassing clouds.13 mph78%30.07 "HgN/A
8:30 PM77 °FPassing clouds.9 mph74%30.04 "HgN/A
7:30 PM77 °FPassing clouds.10 mph74%30.01 "HgN/A
6:30 PM79 °FPassing clouds.13 mph70%30.01 "HgN/A
5:30 PM82 °FPassing clouds.13 mph58%29.98 "HgN/A
4:30 PM86 °FScattered clouds.13 mph52%29.98 "HgN/A
3:30 PM88 °FScattered clouds.13 mph46%29.98 "HgN/A
2:30 PM86 °FPartly sunny.15 mph49%30.07 "HgN/A
1:30 PM86 °FScattered clouds.12 mph49%30.04 "HgN/A
12:30 PM86 °FScattered clouds.12 mph49%30.07 "HgN/A
11:30 AM82 °FScattered clouds.9 mph58%30.09 "HgN/A
10:30 AM82 °FScattered clouds.6 mph58%30.09 "HgN/A
Weather by CustomWeather, © 2014

See weather overviewHow to use our weather pages